Hourly Data Report for September 08, 2010

PETERBOROUGH AWOS
ONTARIO

44°14'00.000" N
78°22'00.000" W
191.40 m
6166420

Download Data

Hourly Data (September 2010)
Hourly Data Report for September 8, 2010
TIME
LST
Temp Definition
°C
Dew Point Definition
°C
Rel Hum Definition
%
Precip. Amount Definition
mm

Wind Dir Definition
10's deg

Wind Spd Definition
km/h
Visibility Definition
km
Stn Press Definition
kPa
Hmdx Definition


Wind Chill Definition


Weather Definition


00:00 13.7 12.9 95   LegendMM LegendMM 15.0 98.42      
01:00 16.4 12.8 79   LegendMM LegendMM 15.0 98.39      
02:00 17.0 13.0 77   LegendMM LegendMM 15.0 98.39      
03:00 15.7 13.1 85   LegendMM LegendMM 15.0 98.43      
04:00 14.5 13.3 93   LegendMM LegendMM 15.0 98.39      
05:00 14.4 12.5 88   LegendMM LegendMM 15.0 98.40      
06:00 14.9 12.2 84   LegendMM LegendMM 15.0 98.45      
07:00 14.9 11.9 82   LegendMM LegendMM 15.0 98.49      
08:00 15.6 11.6 77   LegendMM LegendMM 15.0 98.49      
09:00 15.9 11.6 76   LegendMM LegendMM 15.0 98.51      
10:00 16.9 11.7 71   LegendMM LegendMM 15.0 98.51      
11:00 16.3 13.2 82   LegendMM LegendMM 15.0 98.52      
12:00 17.9 12.1 69   LegendMM LegendMM 15.0 98.49      
13:00 17.5 11.9 70   LegendMM LegendMM 15.0 98.50      
14:00 16.6 13.5 82   LegendMM LegendMM 15.0 98.49      
15:00 17.1 12.9 76   LegendMM LegendMM 15.0 98.50      
16:00 15.8 13.9 88   LegendMM LegendMM 15.0 98.57     Rain
17:00 14.9 13.9 94   LegendMM LegendMM 15.0 98.63     Rain
18:00 14.8 13.4 91   LegendMM LegendMM 15.0 98.65     Drizzle
19:00 14.2 12.6 90   LegendMM LegendMM 15.0 98.65     Drizzle
20:00 14.1 12.8 92   LegendMM LegendMM 15.0 98.68      
21:00 13.9 11.9 88   LegendMM LegendMM 15.0 98.67      
22:00 13.9 12.2 89   LegendMM LegendMM 15.0 98.69      
23:00 13.8 11.4 85   LegendMM LegendMM 15.0 98.73      

Notes on Data Quality.

Legend

  • E = Estimated
  • M = Missing
  • NA = Not Available*
  • [empty] = Indicates an unobserved value
Date modified: